Regional Weather Roundup
Issued by NWS Charleston, SC

Current Version | Previous Version | Graphics & Text | Print | Product List | Glossary On
Versions: 1 2 3 4 5 6 7 8 9 10 11 12 13 14 15 16 17 18 19 20 21 22 23 24 25 26 27 28 29 30 31 32 33 34 35 36 37 38 39 40 41 42 43 44 45 46 47 48 49 50
000
ASUS42 KCHS 031627
RWRCHS

REGIONAL WEATHER ROUNDUP
NATIONAL WEATHER SERVICE CHARLESTON SC
1200 PM EDT SUN MAY 03 2015

NOTE: "FAIR" INDICATES FEW OR NO CLOUDS BELOW 12,000 FEET WITH NO
SIGNIFICANT WEATHER AND/OR OBSTRUCTIONS TO VISIBILITY.

NOT ALL STATIONS ARE QUALITY CONTROLLED BY THE NATIONAL
WEATHER SERVICE. USE DATA WITH CAUTION...ESPECIALLY
DEWPOINT OBSERVATIONS.

SCZ027-030-031-034>040-042>050-031700-
...SOUTHEAST SOUTH CAROLINA...

CITY           SKY/WX    TMP DP  RH WIND       PRES   REMARKS
N CHARLESTON   MOSUNNY   78  49  35 CALM      30.20S
WATERFRONT PRK   N/A     73 N/A N/A S6          N/A
MOUNT PLEASANT FAIR      75  52  43 MISG      30.20S
PINOPOLIS      NOT AVBL
MONCKS CORNER  FAIR      77  52  41 CALM      30.20F
SUMMERVILLE    FAIR      77  50  38 CALM      30.21S
BEAUFORT MCAS  SUNNY     77  50  38 W7        30.21S
BEAUFORT ARPT  FAIR      77  55  47 W6        30.21S
HILTON HEAD IS SUNNY     75  54  46 CALM      30.22S
WALTERBORO     SUNNY     75  48  38 NW3       30.21F
ALLENDALE      FAIR      77  50  38 CALM      30.20S

...SOUTHERN MIDLANDS AND PEE DEE...

CITY           SKY/WX    TMP DP  RH WIND       PRES   REMARKS
GEORGETOWN     NOT AVBL
KINGSTREE      NOT AVBL
ORANGEBURG     SUNNY     78  51  38 NE5       30.21R
BARNWELL       FAIR      79  52  38 S3        30.21S
AIKEN          FAIR      77  43  29 SW5       30.24S
MANNING        FAIR      73  -9   3 SW3       30.21S
COLUMBIA       MOSUNNY   77  45  32 S3        30.19F
SUMTER         SUNNY     77  45  31 SW5       30.19S
FLORENCE       SUNNY     78  43  28 VRB3      30.20S
MYRTLE BEACH   MOSUNNY   73  61  64 SE13      30.23R
N MYRTLE BEACH SUNNY     73  59  61 SE9       30.21R

$$

GAZ063-065-086>088-099>101-113>116-118-119-134>141-150-031700-
...SOUTHEAST GEORGIA...

CITY           SKY/WX    TMP DP  RH WIND       PRES   REMARKS
SAVANNAH ARPT  SUNNY     78  48  34 VRB3      30.21S
HUNTER AAF     SUNNY     78  52  40 VRB3      30.19S
FORT STEWART   SUNNY     77  49  38 NW3       30.19S
STATESBORO       N/A     77  52  42 NW5       30.21S
SYLVANIA       SUNNY     77  52  41 CALM      30.22S
CLAXTON        FAIR      77  54  44 W3        30.21S

...CSRA...CENTRAL AND FAR SOUTHEAST GEORGIA...

CITY           SKY/WX    TMP DP  RH WIND       PRES   REMARKS
THOMSON        SUNNY     79  55  43 S5        30.24S
AUGUSTA-BUSH   MOSUNNY   77  53  43 SW8       30.20S
AUGUSTA-DANIEL SUNNY     77  49  37 SW7       30.21S
SWAINSBORO     NOT AVBL
VIDALIA        MOSUNNY   75  52  43 CALM      30.21F
EASTMAN        FAIR      77  51  40 W3        30.22F
HAZLEHURST     FAIR      78  53  41 S3        30.20S
ALMA           SUNNY     76  49  38 VRB3      30.21S
WAYCROSS       MOSUNNY   81  53  37 SW3       30.20F
JESUP          FAIR      79  52  38 N3        30.21S
BAXLEY         FAIR      79  50  36 S6        30.20F
BRUNSWICK      MOSUNNY   81  41  24 SE5       30.21S
SAINT SIMONS   SUNNY     77  47  34 VRB5      30.21S

$$

SCZ027-028-034-036>038-045-046-048>050-GAZ119-141-031700-
...LAKE AND SUPPLEMENTAL COASTAL OBSERVATIONS...

STATION/POSITION TIME  TEMP    WIND        PRES    WAVE   SWELL
                       AIR SEA DIR/SP/G            HT/PER HT/PER/DIR
                 (UTC) (F)     (DEG/KT/KT) (MB)    (FT/S) (FT/S/D)
UPR LAKE MARION  NOT AVBL
WINYAH BAY       1500   69     160/  3     1022.0
LAKE MURRAY      1500   71     150/  3/  3 1022.4R
ACE BASIN NERRS  1515   76     340/  2     1023.0
FORT PULASKI     1600           10/  1/  2   N/A
SAPELO ISLAND    1600   77     240/  3     1023.0S

$$

ANZ835-935-AMZ111-154-330-350-352-354-370-450-454-472-031700-
...C-MAN AND BUOY OBSERVATIONS...

STATION/POSITION TIME  TEMP    WIND        PRES    WAVE   SWELL
                       AIR SEA DIR/SP/G            HT/PER HT/PER/DIR
                 (UTC) (F)     (DEG/KT/KT) (MB)    (FT/S) (FT/S/D)
BUOY 41004       1550   69 73  310/  4/  6 1022.9R   3/11   3/11
BUOY 41008       1550   69 71   40/  4/  4 1023.6R   3/13   3/ 60/13
FOLLY BEACH CMAN 1600   70     200/  8/  9 1023.0R
CAPERS NEARSHORE 1508   70      CALM  /  2 1022.9R
FRIPP NEARSHORE  1500   74      CALM  /  2 1022.5R


STATION/POSITION TIME  TEMP    WIND        PRES    WAVE   SWELL
                       AIR SEA DIR/SP/G            HT/PER HT/PER/DIR
                 (UTC) (F)     (DEG/KT/KT) (MB)    (FT/S) (FT/S/D)
5E ST. MARYS GA  1521      72                N/A     2/14   2/ 90/14
FRYING PAN BUOY  1550   70 72   20/  2/  4 1024.1R   4/10   3/100/10
BUOY 41025       1550   60 60  290/  6/  8 1022.4R   5/11   5/ 60/11
CAPE LOOKOUT NC  1600   71     260/  7/  8 1022.6R
BUOY 41002       1550   68 69   20/ 16/ 21 1022.3R   8/11   5/ 10/11
BUOY 41010       1520   73 78   50/ 10/ 14 1022.2R
ST AUGUSTINE FL  1600   72 71  100/  5/  5 1023.6R


$$


USA.gov is the U.S. government's official web portal to all federal, state and local government web resources and services.